Wind_Speed
29 29 29 29 29 29 29 29 29 29 29 28 28 28 28 28 29 29 30 31 31 32 32 32 30 30 30 30 30 29 29 30 29 32 27 16 16 21 21 23 24 23 22 21 20 19 18 17 18 19 20 20 20 20 20 19 20 22 23 24 24 22 18 13 9 7 9 10 9 10 8 7 6 9 10 9 8 8 8 8 7 6 5 3 2 4 4 4
28 29 29 29 29 29 29 30 29 29 29 28 28 28 28 28 28 29 30 30 31 31 32 31 31 30 31 32 31 30 30 30 32 32 21 14 20 22 21 24 25 24 22 21 20 21 19 17 18 19 20 21 21 21 21 21 22 23 24 26 24 19 15 11 8 8 10 10 10 10 8 6 5 7 9 9 8 7 7 7 5 4 3 2 3 4 4 4
28 29 29 30 29 29 29 29 29 29 29 28 28 28 28 28 28 29 30 30 31 31 31 30 30 31 32 32 31 31 31 32 34 28 17 19 23 20 22 24 25 24 23 21 22 23 22 19 19 20 21 22 23 22 22 22 22 23 25 26 22 17 14 11 8 7 8 9 11 10 7 4 2 7 8 7 7 6 6 4 3 4 3 2 2 2 3 3
28 29 29 30 30 29 29 29 29 29 28 28 27 27 27 27 28 29 29 30 30 30 30 29 30 30 31 31 30 30 31 33 33 25 19 23 23 20 22 24 24 23 23 23 24 25 24 21 19 20 22 23 24 24 24 23 23 24 27 26 20 17 15 11 8 7 6 7 9 8 7 2 1 5 7 6 6 5 4 3 1 2 2 1 0 1 2 4
27 28 29 30 30 30 29 29 29 29 28 28 27 27 27 27 28 28 29 29 29 29 28 28 28 29 30 30 29 29 30 30 28 24 23 24 22 22 22 24 24 22 23 25 25 26 25 22 20 21 22 23 25 25 25 23 23 25 26 25 21 19 16 12 9 7 5 6 7 5 5 2 2 5 7 6 5 4 4 4 4 4 3 4 2 1 3 5
27 27 28 29 29 29 29 29 29 29 28 27 27 27 27 28 28 28 29 28 28 28 27 27 27 28 29 29 29 28 29 25 18 17 22 24 23 23 23 24 23 22 24 25 26 26 26 24 21 22 22 23 25 25 24 22 23 25 25 25 22 20 17 13 10 6 5 8 8 4 3 2 4 7 9 7 6 7 7 8 9 9 7 6 4 4 4 5
26 27 28 28 29 29 29 29 28 28 28 27 27 27 27 27 27 28 28 28 27 26 26 26 26 27 27 28 28 28 31 26 15 13 16 20 23 24 25 25 23 23 24 26 27 27 27 26 22 20 21 23 24 24 22 22 23 25 25 24 21 20 17 14 9 7 8 9 8 5 4 3 4 8 9 7 8 10 12 13 12 11 9 7 7 6 4 6
25 26 27 28 29 29 28 28 28 27 27 27 27 27 27 27 28 28 28 28 26 26 26 25 26 26 26 27 27 29 31 22 16 18 17 15 19 24 26 25 24 23 24 25 26 27 27 25 20 19 21 22 23 22 22 22 24 26 25 23 21 19 17 14 12 10 10 8 6 6 6 4 2 7 8 8 10 12 15 16 12 8 6 6 6 4 4 6
24 25 26 27 28 28 28 28 27 27 27 27 27 27 27 27 28 28 28 27 26 26 25 25 26 25 26 26 27 31 27 16 17 23 23 17 16 22 26 25 25 24 24 25 26 28 27 24 20 18 19 20 22 22 22 22 24 25 23 21 19 19 17 17 16 12 11 9 6 6 4 4 2 6 8 9 11 13 15 16 11 5 4 5 4 2 3 5
24 24 26 27 28 28 28 27 27 27 27 27 27 28 28 28 28 28 28 27 26 25 25 25 25 25 27 26 28 30 21 17 21 23 24 22 18 20 24 25 25 25 25 26 27 27 25 22 19 18 18 20 21 21 22 23 23 21 20 20 19 19 19 18 16 14 12 10 8 5 3 3 4 8 9 8 10 10 10 12 9 5 4 4 3 1 3 5
23 24 25 26 27 27 27 27 27 27 27 27 27 28 28 28 28 28 28 27 26 26 25 25 25 26 26 27 30 26 17 18 21 21 23 23 19 19 20 23 25 25 26 26 25 24 23 22 20 19 19 20 21 21 22 24 23 19 16 18 19 19 20 18 15 14 13 11 7 3 2 5 8 9 9 9 10 8 6 5 4 5 5 4 2 1 4 5
22 23 24 24 25 26 26 27 27 27 27 27 28 28 28 28 28 28 28 28 27 26 26 25 26 27 26 30 28 19 17 20 19 21 23 21 20 19 19 22 25 26 27 26 24 23 23 24 22 20 19 20 21 19 20 24 23 19 15 16 18 19 19 16 13 13 12 11 7 3 5 8 10 9 10 10 9 8 6 3 2 4 5 3 2 4 4 3
21 21 22 23 24 25 25 26 27 27 27 27 28 27 28 28 28 28 28 28 27 26 26 26 27 26 28 31 23 15 19 21 19 21 22 22 22 21 21 22 25 27 28 26 25 25 25 24 22 21 21 20 20 18 17 21 22 20 17 16 16 16 17 14 12 11 9 10 7 4 7 7 7 10 10 9 6 4 4 4 3 3 4 3 4 4 3 2
19 20 21 21 22 23 24 25 26 27 27 27 27 27 27 28 28 29 28 28 27 27 27 27 27 27 29 27 18 18 22 22 21 22 22 23 23 22 22 22 23 26 27 27 27 27 26 25 23 23 24 21 20 19 16 16 20 20 17 16 15 12 12 12 10 8 7 7 6 6 9 6 6 9 7 4 3 3 4 4 3 2 3 3 4 3 1 1
18 19 19 20 21 22 23 24 25 26 27 27 27 27 27 27 28 28 28 27 27 27 27 27 27 26 28 23 19 22 23 22 21 20 23 25 24 22 20 19 21 23 26 27 28 29 27 26 25 25 25 22 21 22 18 14 15 19 17 13 15 12 8 7 8 9 8 8 7 8 10 6 4 4 1 3 2 3 3 3 2 3 3 3 3 2 1 1
17 17 18 19 19 20 21 23 24 25 26 26 25 25 26 26 27 27 27 27 27 28 27 27 26 26 26 20 20 23 22 21 18 20 25 26 25 22 19 19 20 21 25 28 29 31 30 28 26 25 25 25 23 22 20 16 14 17 18 12 10 11 10 8 9 10 10 9 10 10 11 7 1 6 6 6 5 4 3 5 3 2 2 2 3 2 2 0
16 16 17 17 18 19 20 21 23 24 24 24 24 24 24 26 26 26 27 27 27 27 27 26 24 25 23 18 19 21 19 20 20 22 24 24 26 25 22 21 21 22 24 28 30 31 31 29 26 24 25 26 24 22 21 19 16 16 20 16 8 9 10 10 10 8 9 10 8 8 12 12 7 5 3 1 1 1 1 6 7 2 3 5 4 3 3 1
16 16 16 16 16 17 19 20 21 22 22 22 22 22 23 24 24 25 26 26 26 27 26 26 25 24 21 17 15 16 19 23 24 25 24 23 25 26 24 22 21 23 25 28 31 32 32 29 25 24 25 25 24 25 23 20 18 16 17 17 10 8 9 9 10 8 9 9 7 8 10 11 10 11 9 7 4 3 3 2 6 4 4 7 6 5 4 2
17 16 16 16 16 16 17 18 19 19 19 20 20 20 21 22 23 24 25 27 27 27 25 24 25 23 18 15 15 16 22 25 25 25 25 24 25 25 25 24 23 25 28 30 31 32 32 28 26 25 26 27 25 24 23 19 18 15 13 12 12 11 8 8 8 7 7 8 8 11 11 8 9 13 12 8 6 4 3 4 4 3 2 7 7 7 6 4
17 17 17 17 16 15 15 16 16 16 17 17 17 18 18 20 22 23 25 27 26 26 25 22 22 22 19 16 15 18 22 24 24 24 25 24 24 25 26 26 26 27 28 31 32 32 30 27 28 29 25 24 24 22 22 21 17 13 11 11 12 13 9 7 5 4 8 9 9 11 10 8 11 12 10 6 5 3 3 5 7 6 4 6 9 9 7 5
18 18 18 17 17 16 15 15 15 15 14 14 15 15 16 19 21 23 25 27 25 25 26 24 22 22 23 19 15 18 21 23 25 25 25 24 23 25 27 28 29 29 29 30 32 30 27 27 28 27 23 21 24 24 23 23 18 13 11 11 10 11 9 6 3 3 7 8 7 10 11 10 10 10 7 4 3 4 7 8 9 10 9 9 10 9 8 7
18 19 18 17 17 17 15 15 16 16 13 12 12 12 16 19 21 22 23 24 24 25 25 26 25 23 23 21 17 20 23 23 25 26 26 26 24 25 27 30 30 30 31 32 33 30 26 28 27 24 22 22 24 25 25 23 20 16 12 11 10 8 7 6 5 4 5 4 3 8 12 6 5 7 7 4 3 3 6 9 11 11 11 10 10 8 8 8
18 19 19 17 17 16 15 15 17 17 13 10 11 13 17 20 20 20 20 21 21 23 25 26 26 23 22 22 20 23 25 25 27 28 28 27 25 25 27 31 31 30 35 35 32 30 25 25 25 23 24 25 25 25 25 23 20 19 15 13 11 7 4 6 7 4 4 2 2 9 11 8 6 7 7 4 4 6 5 7 10 11 11 11 10 10 8 7
19 19 19 17 16 15 15 16 18 16 12 10 13 17 19 18 16 16 16 18 20 21 23 24 26 25 22 21 22 23 24 26 29 29 30 29 26 25 27 31 31 32 36 35 30 27 22 19 22 25 25 26 25 24 25 23 21 20 17 15 12 7 3 4 6 3 3 3 4 9 10 11 8 8 7 6 6 8 8 8 9 9 9 9 10 10 8 8
18 19 20 18 15 15 16 17 18 16 13 12 15 17 18 15 13 13 12 14 17 19 20 23 26 24 22 24 24 22 21 25 30 30 30 29 27 27 28 30 31 32 34 32 29 24 20 20 23 26 26 25 24 24 25 23 21 20 20 18 12 7 4 3 3 2 3 3 7 13 8 10 8 9 9 8 8 8 9 9 8 7 6 7 8 9 8 8
15 17 18 17 15 15 16 16 17 16 13 14 15 15 16 14 11 11 10 10 15 17 18 21 23 21 24 28 25 21 20 25 29 29 29 27 25 27 30 31 31 31 30 28 25 23 22 24 24 24 25 24 24 25 24 23 22 21 21 19 12 7 5 4 3 2 4 3 8 12 8 7 9 10 11 10 8 7 8 8 8 7 5 6 7 9 10 10
12 13 16 16 15 15 15 14 15 13 12 14 15 14 15 14 10 8 6 6 10 13 16 19 20 19 25 28 25 22 18 21 27 28 28 27 25 27 29 32 32 30 29 26 21 22 27 27 23 21 23 25 26 25 24 24 23 22 21 19 14 10 7 5 3 4 6 4 5 6 9 11 10 10 13 11 8 7 7 7 7 6 5 4 6 7 9 11
11 11 13 13 14 14 13 13 13 11 11 14 14 13 13 12 10 6 3 2 4 7 11 18 18 18 25 26 25 24 15 17 27 28 27 26 26 28 28 30 32 30 29 27 23 22 27 29 25 20 21 26 29 26 24 24 24 23 20 17 14 11 10 8 5 5 6 6 5 4 7 8 7 9 12 11 8 7 6 6 7 6 6 5 4 5 7 9
10 10 11 12 13 13 11 11 13 12 12 14 13 12 12 10 9 5 2 2 3 5 7 16 19 20 27 27 25 22 12 16 25 26 27 28 28 29 27 26 27 26 25 26 25 20 19 22 23 21 22 26 28 26 24 24 25 23 19 17 13 10 10 8 5 6 5 4 5 5 7 6 3 5 10 10 9 9 8 7 7 6 6 5 5 5 5 7
10 10 10 11 13 12 10 10 12 13 14 15 13 12 10 9 8 5 3 3 2 3 6 14 20 23 28 28 27 21 14 19 24 24 28 29 28 28 24 22 21 21 21 22 24 19 13 15 19 19 19 19 20 21 21 22 23 22 20 18 14 10 11 9 8 8 4 1 3 5 10 8 1 2 6 9 9 10 10 8 7 6 5 4 4 5 5 6
10 11 10 10 12 11 11 12 13 14 15 15 12 12 11 10 8 4 2 5 4 3 6 12 20 24 27 30 31 24 17 20 22 23 28 28 28 28 24 22 20 19 20 20 21 20 16 15 17 18 16 14 13 15 17 19 21 22 20 19 15 10 11 9 8 9 4 1 3 5 9 8 3 2 4 5 6 8 8 7 6 6 5 4 4 4 5 6
10 10 9 10 11 12 13 14 14 13 14 15 13 13 13 10 8 9 6 1 4 5 4 10 20 24 25 28 31 27 21 19 19 22 28 28 29 30 26 24 22 19 18 20 20 19 20 18 16 18 17 14 12 13 17 19 21 22 21 21 15 7 6 5 2 5 3 1 5 7 7 5 3 6 6 5 5 6 6 6 5 5 5 4 3 4 5 7
11 9 8 10 11 13 14 13 13 13 14 15 15 15 13 6 7 17 13 4 2 8 4 7 19 22 22 26 29 30 23 18 18 20 25 27 28 29 26 23 23 19 15 17 18 16 16 17 18 19 17 15 13 13 17 19 21 24 22 22 17 6 4 3 1 0 1 2 7 8 6 5 5 8 9 8 7 8 7 5 4 4 4 4 4 4 6 7
11 8 8 11 11 12 12 12 13 15 14 16 17 15 13 8 5 13 15 10 6 8 7 4 12 16 22 26 29 32 26 18 20 21 22 25 27 27 26 23 22 19 14 16 18 14 10 11 18 21 15 14 15 12 14 16 19 23 22 21 19 10 6 4 3 3 3 4 7 6 4 6 9 10 10 10 9 8 8 7 5 4 4 4 5 5 6 7
11 7 7 11 11 10 11 12 13 14 14 17 19 16 16 15 8 8 9 8 6 7 5 3 6 13 22 26 27 31 27 19 20 22 22 24 26 25 25 23 21 20 17 15 16 15 11 9 15 19 13 11 15 13 12 14 16 21 21 19 21 16 9 7 5 7 9 7 4 3 3 8 12 11 10 10 9 9 8 6 5 4 5 5 6 7 8 9
10 6 8 10 10 10 10 13 13 13 15 19 20 20 22 19 10 5 1 4 5 7 7 6 8 15 22 25 26 31 28 20 19 21 21 23 23 23 22 21 20 21 19 15 13 13 11 9 12 16 14 12 13 13 13 13 17 23 23 20 20 16 12 9 6 6 9 7 2 3 6 10 12 10 11 10 8 9 8 6 7 6 7 7 7 9 10 11
9 6 9 10 10 11 12 13 13 14 17 21 21 21 23 21 11 1 6 5 6 3 13 10 10 18 23 24 26 31 29 23 21 20 21 22 21 23 24 21 20 21 18 15 12 10 11 11 11 14 15 13 12 12 12 14 19 24 24 22 19 13 12 11 7 4 4 3 2 3 6 12 11 8 13 12 8 10 9 7 7 7 7 7 7 8 9 10
9 7 8 9 11 13 13 13 15 17 19 23 24 21 21 22 11 2 4 1 4 4 13 9 12 18 23 25 26 30 30 25 22 20 21 20 17 21 25 22 22 22 18 15 11 8 11 10 8 13 15 14 13 12 14 17 19 20 21 22 18 11 11 12 8 4 3 3 1 2 7 13 14 11 15 14 10 11 9 6 6 5 6 6 7 8 9 10
10 8 8 9 12 13 14 14 16 19 21 23 24 22 21 20 11 5 2 2 4 9 10 6 14 17 21 26 27 30 30 25 23 21 19 18 13 16 24 24 22 23 20 18 13 9 11 8 7 12 15 14 15 15 18 22 20 15 16 22 19 10 13 16 10 6 6 4 3 3 4 10 15 15 16 15 12 11 9 8 7 6 7 7 7 8 9 9
10 9 8 10 11 13 15 17 18 20 20 22 22 21 20 17 13 9 3 1 10 10 5 5 15 15 16 25 26 29 31 26 24 23 19 19 15 13 22 24 21 22 21 20 16 11 10 7 5 9 12 14 15 16 21 25 23 18 16 22 20 11 13 15 9 6 7 6 4 3 1 10 17 18 17 16 14 12 10 9 8 8 8 7 7 8 8 7
11 11 10 10 10 12 15 17 19 19 19 20 20 20 18 11 11 9 3 5 11 7 2 4 13 15 15 22 23 27 31 25 22 22 18 20 18 11 17 24 21 20 21 22 21 15 11 8 4 5 9 13 14 16 21 24 25 20 17 20 20 14 14 12 5 5 7 7 9 7 2 10 19 21 20 18 16 14 12 10 10 11 10 7 7 8 8 7
13 12 11 11 10 12 16 17 18 18 17 18 18 19 15 7 8 7 2 5 5 1 2 5 13 16 16 21 22 24 27 22 20 20 18 19 17 10 13 21 20 17 17 22 23 18 13 11 6 4 5 8 12 17 21 22 22 20 16 18 19 18 18 13 6 9 9 8 9 8 3 7 18 22 22 22 19 15 12 10 12 12 10 8 7 7 7 7
15 15 14 13 12 13 16 16 17 16 16 17 16 16 13 7 7 5 3 4 2 3 4 6 12 17 18 22 22 23 25 21 18 19 18 17 15 10 11 16 19 17 15 18 22 21 16 12 8 6 6 5 9 14 17 18 19 18 15 17 18 18 18 15 10 13 15 12 10 7 3 6 18 22 23 23 20 15 12 12 12 10 8 7 8 8 7 7
16 17 15 14 13 14 15 15 15 15 15 14 14 14 10 7 8 4 5 3 5 7 8 10 11 15 18 21 21 22 23 19 16 17 19 19 16 13 13 14 17 18 15 15 20 22 18 13 11 9 7 5 6 6 9 13 15 15 15 17 17 16 16 14 11 12 14 14 12 7 4 9 18 22 23 22 19 16 15 14 12 8 6 7 9 9 8 8
16 17 17 14 13 13 14 14 15 14 12 11 11 11 8 7 8 5 4 4 7 8 11 13 12 12 15 18 19 20 21 18 17 20 21 21 18 15 15 15 15 16 16 14 16 20 18 14 13 10 6 4 4 3 6 11 12 12 13 14 15 15 15 14 13 12 11 13 14 10 8 12 20 23 22 19 17 16 18 18 13 7 6 8 9 7 7 8
16 17 18 16 14 13 14 14 14 14 12 10 11 10 7 7 9 7 6 6 7 8 11 12 13 12 12 15 18 20 20 19 19 22 23 23 19 16 14 15 13 13 15 15 16 20 20 16 15 12 9 9 7 7 9 11 12 12 11 11 12 13 15 15 14 13 12 14 16 14 11 13 20 25 23 21 19 19 21 20 13 7 7 9 9 8 9 10
15 15 18 17 14 15 15 15 14 13 12 12 13 10 7 10 11 8 6 6 7 9 10 11 11 12 13 17 19 20 20 20 22 24 25 23 20 18 16 14 12 12 13 15 16 21 22 18 15 14 12 10 10 11 12 10 10 11 11 11 11 12 14 16 16 14 14 13 13 16 16 14 19 25 26 26 25 22 23 18 10 8 10 10 9 8 8 8
14 14 17 16 13 15 16 15 14 13 13 15 14 10 8 11 11 8 6 7 7 7 8 8 9 12 15 18 20 22 22 23 25 26 25 22 21 20 19 16 15 13 12 13 16 19 21 17 15 15 13 11 10 11 12 11 11 11 10 11 12 12 14 16 16 14 14 13 13 16 18 18 19 24 27 29 29 27 24 16 10 10 10 8 6 7 7 7
13 13 17 16 12 14 16 15 15 15 16 16 13 10 10 11 11 9 7 8 7 5 6 8 10 12 13 13 17 23 24 24 26 25 23 22 20 19 18 16 16 15 12 13 15 16 16 15 14 14 15 13 11 11 12 12 12 13 11 10 12 14 13 14 14 12 13 15 14 15 18 20 21 23 25 28 28 26 22 16 13 13 10 7 7 8 9 8
13 12 17 16 12 15 17 17 17 16 17 17 13 11 11 11 11 11 8 7 6 4 5 7 9 11 11 11 14 19 19 20 22 22 21 20 19 18 16 15 15 15 13 14 14 13 13 14 15 16 17 15 11 11 11 9 12 14 14 12 12 13 13 13 13 12 13 16 14 14 17 21 22 23 23 23 23 21 16 14 14 12 9 7 7 9 9 7
12 11 15 17 15 18 19 18 17 17 18 17 13 12 11 10 9 10 8 6 5 4 5 6 8 9 10 10 13 16 16 16 16 17 17 16 15 14 13 12 14 14 14 14 14 13 12 13 19 20 17 16 13 11 11 9 10 13 16 16 15 14 13 13 13 13 14 15 14 14 17 21 22 22 22 21 21 20 18 16 13 10 9 8 8 8 8 6
12 9 15 18 19 20 20 18 17 17 17 16 13 12 11 10 9 9 8 8 8 6 6 7 7 8 9 10 13 15 16 14 13 13 13 11 11 10 9 10 10 10 12 12 13 13 11 12 19 19 15 16 15 13 13 11 7 7 11 14 15 14 13 13 14 14 14 13 13 14 16 19 21 21 22 21 21 21 18 14 11 9 9 9 9 7 6 6
Wind_Direction
263 263 262 261 259 259 258 256 255 255 253 252 251 249 247 247 246 246 245 244 243 243 243 243 243 244 245 247 248 249 250 252 253 253 254 257 253 246 235 229 231 230 228 229 225 224 225 225 226 224 222 221 221 220 219 219 217 218 218 218 220 214 201 186 178 171 154 147 148 149 156 174 207 223 225 237 244 246 254 268 275 271 259 253 345 358 355 349
262 261 260 259 258 258 257 256 255 253 252 252 251 250 248 246 246 245 244 243 243 242 242 242 242 243 245 246 247 248 249 251 251 253 256 256 246 239 233 230 230 230 230 229 225 222 222 226 227 224 221 221 221 219 217 217 217 219 220 222 219 204 185 172 164 155 151 148 148 150 152 165 204 228 233 237 243 248 249 259 263 261 268 291 342 355 356 1
261 260 259 258 257 257 256 255 254 253 252 250 250 249 248 246 246 244 243 243 242 242 241 241 242 243 244 245 246 247 249 251 251 253 253 247 242 233 229 230 229 228 228 226 222 219 217 220 222 221 219 219 220 218 216 215 216 218 223 225 216 194 178 169 165 156 154 152 152 156 155 151 204 223 234 241 241 244 250 257 248 249 272 343 10 4 0 22
261 260 259 257 255 254 254 253 252 251 250 249 248 248 247 246 246 245 243 243 242 242 241 240 241 242 244 244 245 247 249 251 252 252 248 241 238 230 227 230 230 224 223 222 219 216 215 216 217 216 216 217 218 217 217 215 214 218 222 224 213 198 184 171 176 165 153 155 154 159 163 157 296 226 232 243 239 244 260 265 251 271 286 302 172 26 359 11
261 260 258 256 254 252 251 251 250 249 248 247 247 246 245 245 245 244 243 243 242 242 241 240 240 241 242 243 243 245 248 254 256 251 244 240 232 226 224 229 231 222 219 219 217 215 215 216 215 214 213 214 216 217 217 215 216 219 222 223 215 206 189 173 185 169 155 167 148 144 178 215 297 253 249 239 236 265 282 289 294 290 266 242 242 326 352 3
261 259 256 255 253 252 251 249 248 247 246 246 245 245 244 244 244 243 243 242 242 241 240 239 239 240 241 241 241 242 243 246 253 249 242 238 230 223 222 226 228 221 216 215 214 213 214 216 216 215 214 214 216 217 217 217 220 222 224 223 219 214 196 178 188 176 171 177 157 147 190 238 301 281 271 255 259 284 287 294 296 286 270 259 273 308 349 19
262 259 255 253 252 251 250 248 247 246 245 244 243 244 244 243 244 243 243 242 241 240 239 238 237 239 239 239 239 240 240 236 236 245 239 233 227 219 218 222 224 221 215 213 212 211 213 215 216 217 217 217 218 218 218 218 221 225 225 222 222 219 197 179 191 191 185 180 174 192 199 200 295 289 279 268 272 283 287 292 292 283 272 268 282 300 3 35
263 259 255 252 251 250 249 247 246 245 244 244 243 243 242 242 243 243 243 241 240 239 238 237 237 238 238 238 238 238 240 234 225 235 234 225 222 216 215 217 220 220 216 213 212 212 214 215 215 217 219 220 220 219 217 217 222 227 225 221 224 216 194 196 212 199 191 186 191 221 208 187 280 292 276 269 278 284 285 286 285 274 259 259 277 301 28 43
263 259 255 252 251 250 249 247 246 244 244 244 243 243 242 241 242 242 242 241 240 239 238 237 237 238 237 238 239 238 238 223 209 224 229 222 217 215 213 213 216 217 215 212 210 211 213 213 213 216 220 222 222 220 217 217 222 228 227 223 225 217 210 224 223 200 200 205 212 234 210 180 244 271 255 261 286 291 282 278 275 254 234 249 273 320 40 54
264 260 256 253 251 250 248 247 245 243 242 243 242 242 242 241 241 242 242 241 240 238 237 237 237 238 238 237 239 239 232 218 212 217 225 222 216 213 209 209 212 215 216 213 210 211 211 210 211 215 219 221 221 219 215 215 221 228 232 230 229 223 224 233 223 208 219 222 222 240 211 182 228 254 260 277 298 296 281 275 267 239 236 261 278 322 66 77
266 261 257 254 252 250 248 246 245 243 241 242 242 242 242 241 242 242 241 241 239 238 237 237 238 238 238 237 238 237 225 222 221 216 222 221 215 212 208 207 210 212 214 214 211 209 209 208 210 214 216 218 217 214 213 213 217 221 228 233 230 224 226 230 224 221 230 226 222 246 217 212 233 259 278 286 291 285 272 274 260 227 236 262 256 127 96 89
267 263 260 256 253 250 247 246 244 243 241 241 242 242 242 242 242 242 241 240 238 238 237 237 238 238 239 238 236 232 224 225 221 216 216 213 210 208 205 205 208 210 211 210 207 205 205 206 210 212 211 214 211 208 211 212 214 215 220 228 224 225 229 230 229 232 233 226 223 238 244 242 248 272 287 285 290 285 261 242 204 198 207 222 172 120 104 91
268 266 262 259 255 251 248 245 243 242 241 241 242 242 242 242 242 242 241 240 239 238 237 237 238 238 239 238 231 220 223 223 217 213 209 206 208 206 205 205 206 209 209 206 201 199 201 204 209 209 209 208 203 201 205 209 213 213 218 225 224 232 236 231 230 234 232 223 215 226 249 256 264 280 286 287 293 271 233 214 198 182 173 163 136 115 96 73
269 267 264 261 257 253 249 245 243 241 241 241 241 241 242 243 242 242 240 240 239 237 237 237 238 238 240 237 225 217 223 221 213 208 204 205 207 206 207 207 207 209 208 204 201 197 197 201 204 206 208 204 199 200 198 203 211 213 217 226 230 237 238 232 228 225 224 221 213 232 254 264 287 289 282 274 270 208 195 197 191 175 162 144 130 123 100 49
270 269 266 263 258 254 250 246 244 242 241 241 241 241 242 242 242 241 240 240 238 237 236 237 237 239 241 235 223 220 222 221 213 205 205 205 204 206 207 207 209 209 205 202 201 198 196 198 200 202 204 203 201 201 197 195 203 209 212 220 231 234 229 220 217 216 217 225 227 236 253 272 322 325 158 148 149 148 160 161 162 165 157 152 154 174 227 352
269 269 267 264 261 257 252 248 246 243 243 242 242 242 242 243 242 241 241 239 238 236 235 236 236 238 241 234 225 224 220 220 212 205 208 204 199 202 203 205 208 207 204 200 199 198 195 193 196 201 203 205 205 201 199 201 199 203 207 209 221 224 220 209 205 214 217 225 233 232 241 254 87 91 100 110 119 129 120 88 80 174 180 184 188 200 222 309
268 269 267 266 264 260 256 251 248 246 244 243 243 243 244 243 242 242 241 239 237 236 235 235 234 236 237 228 224 224 217 214 209 207 209 203 200 202 201 203 206 206 203 200 199 197 193 189 193 201 204 206 207 202 201 206 199 193 203 207 199 206 215 209 197 192 192 203 219 230 239 240 220 163 129 55 133 192 127 73 53 24 231 228 224 217 206 134
265 267 267 266 265 264 260 255 251 249 247 246 246 245 246 245 243 242 240 238 236 234 234 232 230 233 232 223 220 215 208 208 207 206 206 202 201 203 203 204 205 206 202 199 198 194 189 187 192 200 204 206 207 205 204 204 197 188 198 205 202 208 211 207 202 184 180 192 205 217 223 229 230 225 232 255 261 270 255 139 62 28 241 225 220 210 195 146
262 266 266 265 265 266 264 259 255 253 252 251 249 247 246 246 244 241 240 237 233 231 232 231 228 227 225 219 210 203 205 207 205 202 201 200 200 201 202 202 204 205 201 197 194 190 186 186 192 198 203 205 205 206 206 202 199 195 192 194 203 217 214 209 214 210 219 228 222 212 212 228 240 231 229 239 248 260 254 193 119 62 243 213 198 186 176 152
260 263 266 266 265 267 266 261 257 258 258 254 252 249 246 245 242 240 239 236 232 230 231 230 228 223 220 218 208 204 207 207 203 197 196 197 198 200 200 200 202 201 200 196 190 187 186 189 196 198 200 205 206 206 205 205 204 197 185 181 201 220 220 213 211 224 248 244 222 211 218 243 241 228 227 231 237 222 143 138 123 105 127 175 173 164 158 153
259 261 265 267 267 266 266 262 257 261 264 257 252 248 244 242 239 237 237 235 232 230 228 227 227 221 215 215 210 208 209 204 199 193 190 192 195 199 199 199 199 195 193 191 187 185 188 195 199 199 199 205 209 208 207 210 210 199 189 185 201 221 219 210 184 195 244 242 221 220 226 239 238 228 226 206 189 165 144 137 127 119 122 140 148 150 155 168
258 259 261 265 267 264 265 262 255 258 267 261 249 241 240 239 238 238 238 237 233 229 229 226 226 220 209 209 206 205 208 200 192 190 187 188 192 197 197 197 198 193 185 181 183 185 191 200 199 197 200 205 210 211 212 215 214 209 203 198 204 219 216 198 167 188 250 248 222 232 221 207 210 206 205 196 158 141 152 153 144 137 139 143 145 152 162 178
257 257 258 262 263 261 262 259 249 252 266 262 236 226 231 235 237 238 240 243 237 231 230 225 224 220 204 199 200 201 202 194 188 189 189 189 194 198 198 195 192 188 183 180 183 187 193 199 196 196 202 206 210 212 214 215 215 214 211 206 207 209 205 183 171 195 272 259 247 232 199 146 131 174 185 181 128 110 127 159 165 160 162 163 160 165 174 189
259 257 256 258 259 258 258 254 244 249 261 246 223 220 226 231 237 240 243 251 245 231 229 227 226 221 199 189 196 201 200 192 189 189 191 194 196 197 197 194 187 182 184 185 187 192 196 197 194 198 204 208 211 213 215 215 215 216 214 210 208 199 193 187 185 211 265 258 233 202 161 110 114 155 163 145 113 105 114 141 166 171 178 183 183 186 190 196
258 253 253 256 257 254 252 248 243 247 248 233 224 221 224 229 235 244 250 261 258 237 228 227 225 215 191 186 198 202 202 197 192 189 191 197 198 195 192 192 188 183 185 187 190 193 197 200 201 204 206 208 213 215 216 216 215 218 217 210 204 197 196 190 187 226 241 210 182 179 146 76 101 141 141 125 107 103 110 124 145 158 176 192 201 203 198 199
250 245 248 253 253 248 246 243 240 239 232 229 228 220 221 225 229 249 258 277 277 247 226 223 220 209 191 191 196 199 207 204 193 189 191 195 199 197 190 189 190 187 186 188 194 198 199 204 207 207 209 210 213 217 218 216 214 220 219 207 199 203 197 174 167 246 252 183 166 183 172 106 106 123 120 111 106 104 104 113 122 131 152 178 193 196 196 203
240 240 245 248 246 243 240 236 231 227 220 223 225 216 217 220 225 253 271 296 281 242 222 216 212 202 193 196 196 194 205 203 190 189 192 189 192 197 193 190 191 190 189 188 193 203 205 206 206 206 210 211 213 217 216 214 214 218 218 208 204 212 203 186 194 260 271 228 172 176 171 144 113 107 113 106 106 111 106 116 117 115 128 155 183 193 201 208
237 242 242 241 238 233 231 228 221 214 210 213 214 210 212 217 226 248 272 318 262 216 212 206 200 191 189 196 199 193 195 191 186 188 190 188 187 192 195 194 193 192 194 195 195 204 211 211 210 210 210 211 214 217 215 214 215 215 216 209 206 211 209 204 211 242 254 234 204 177 173 159 114 108 120 115 121 129 124 128 124 123 129 137 157 174 196 208
237 240 239 235 232 226 221 221 212 205 207 204 202 202 205 215 225 230 235 273 221 198 197 189 187 186 186 192 197 191 180 179 184 184 184 189 189 190 194 195 195 193 195 204 204 205 215 214 212 214 213 211 212 213 212 211 211 211 210 205 200 201 201 196 211 224 208 209 226 212 196 182 109 109 130 128 124 120 117 122 124 130 137 142 150 158 179 200
233 235 238 232 227 221 213 210 203 202 203 197 194 194 200 213 212 206 218 229 208 205 200 181 182 188 188 191 193 187 167 172 185 183 182 189 190 190 193 191 192 191 190 203 206 202 205 200 198 205 208 207 206 208 207 205 206 205 202 199 196 192 187 184 199 207 190 206 240 209 201 198 150 81 135 127 113 104 104 112 120 128 135 148 167 186 199 210
227 232 236 223 216 213 206 202 198 199 197 191 189 190 197 205 202 197 209 220 227 215 202 187 187 193 193 193 192 183 168 174 184 184 182 187 188 188 191 189 186 186 191 203 205 203 201 191 185 190 193 190 191 196 194 194 198 198 198 194 185 175 173 174 184 181 161 269 223 197 203 200 176 165 150 120 109 106 108 114 121 127 141 160 182 211 226 235
227 235 231 214 206 201 200 199 194 194 192 189 189 191 195 199 210 219 210 237 238 202 196 196 193 196 196 196 193 184 174 174 180 184 183 182 186 189 190 191 185 179 191 204 204 208 213 204 188 185 191 190 190 193 188 189 192 193 195 189 176 153 156 168 186 175 169 196 181 183 190 176 158 170 155 128 132 133 125 131 139 143 153 167 188 222 240 249
228 235 223 207 199 193 193 194 192 191 190 191 193 193 194 194 226 223 220 308 263 176 150 193 196 197 194 192 192 185 180 176 175 182 185 183 185 190 191 194 191 185 189 197 197 205 213 213 202 196 201 203 205 205 194 190 190 190 193 188 177 140 120 177 276 161 217 172 168 179 169 137 148 160 149 145 154 153 148 153 164 168 170 181 201 224 238 246
227 232 215 201 197 193 188 188 193 192 192 195 192 189 195 201 236 225 226 282 276 167 108 130 193 197 190 189 190 185 180 177 175 176 182 186 188 190 192 193 195 196 192 185 190 193 190 204 208 204 208 209 204 201 192 189 189 192 196 195 191 177 141 165 201 180 151 140 158 175 164 150 158 159 156 162 168 165 163 163 164 174 181 188 204 221 234 239
228 231 210 198 198 193 185 188 195 195 197 194 190 193 201 207 224 212 214 282 260 175 85 57 204 197 187 188 191 187 181 175 177 177 181 189 190 190 193 192 192 198 194 180 184 191 189 196 203 201 201 195 190 185 185 188 189 191 196 199 201 197 169 145 165 177 153 127 126 143 142 158 162 166 174 179 186 182 173 172 178 195 204 208 216 223 232 236
226 222 201 196 193 187 182 190 198 202 198 191 193 204 206 207 217 198 187 331 192 187 336 325 212 195 187 188 190 188 184 176 175 178 183 190 193 191 193 192 191 196 195 183 173 179 188 190 191 195 189 177 183 193 196 195 187 185 190 196 199 199 193 168 139 145 143 126 113 115 132 156 159 171 185 187 196 195 188 191 195 205 214 218 228 229 235 241
217 206 195 193 184 182 186 192 200 201 194 193 201 210 209 210 217 246 349 345 155 191 319 304 205 194 190 189 190 187 184 177 173 176 181 187 194 197 195 194 196 198 194 184 173 171 182 184 183 189 186 179 189 200 199 198 192 185 185 192 189 183 193 185 145 111 108 101 158 141 146 167 166 172 186 188 201 202 200 204 204 212 216 222 235 239 245 251
209 200 194 187 177 186 195 193 197 196 193 199 207 213 215 213 215 301 331 348 99 341 310 274 200 197 195 191 189 186 183 179 176 179 181 181 190 199 198 198 200 201 195 181 175 174 180 185 183 184 187 192 201 201 191 191 196 193 190 193 190 176 177 175 151 140 126 97 194 163 151 179 187 182 183 191 202 203 205 213 222 238 240 243 250 248 253 257
202 198 195 183 179 193 197 190 193 195 196 204 209 214 216 213 226 274 214 154 351 328 310 232 188 196 198 192 188 186 186 185 182 184 184 179 183 195 198 203 205 203 198 186 180 174 176 183 180 183 190 195 200 199 187 182 183 186 191 194 194 187 177 174 167 168 155 138 187 158 146 203 208 189 183 195 206 211 217 218 227 250 253 256 260 254 255 256
196 196 194 184 185 194 191 188 193 194 197 204 209 213 213 214 238 250 181 320 309 306 316 193 185 194 193 187 187 187 189 192 189 187 187 184 185 191 196 202 206 202 197 193 193 189 180 177 160 176 189 189 191 193 189 186 183 177 181 186 185 175 168 172 177 176 154 141 154 137 177 222 210 193 190 201 207 214 223 223 229 240 240 243 245 242 245 247
190 191 191 187 191 192 188 190 194 195 199 203 208 212 208 217 244 226 158 333 307 295 0 140 177 191 187 179 182 185 187 191 190 185 185 185 185 189 193 198 202 199 194 195 202 203 195 189 160 146 171 179 184 186 186 192 196 192 188 188 188 185 171 162 169 188 166 151 162 163 197 211 199 194 197 205 210 211 215 224 232 233 233 231 228 232 236 236
185 187 187 186 188 186 187 192 194 195 199 201 207 209 204 222 241 205 126 351 325 303 72 111 157 175 180 177 178 181 183 184 183 184 183 184 186 184 185 191 195 194 193 195 201 203 200 205 197 122 132 170 181 187 187 191 197 198 196 194 194 196 190 177 178 187 168 146 157 157 126 183 188 191 198 207 214 213 209 219 227 229 232 229 229 236 235 235
183 181 182 185 185 182 185 191 193 193 195 200 206 204 201 219 210 167 44 4 63 108 107 105 138 157 167 176 178 179 177 171 173 184 182 176 177 170 167 179 185 185 189 193 198 199 199 207 197 134 101 131 163 180 188 191 197 200 200 196 190 191 195 197 202 193 174 156 153 142 96 175 184 188 197 207 215 218 220 229 231 221 217 227 236 240 244 253
182 176 179 187 186 182 182 185 190 192 193 198 203 198 198 205 180 130 25 37 103 107 109 101 116 144 158 168 171 174 174 165 161 173 174 166 159 153 154 165 176 182 185 188 194 195 194 199 186 143 100 96 124 150 176 183 194 199 197 194 192 193 195 196 197 189 175 172 173 162 150 183 188 191 196 204 214 220 226 239 241 219 206 235 240 235 244 260
181 173 179 188 185 181 180 182 186 188 191 193 192 190 195 192 166 115 54 90 107 111 111 98 97 122 147 162 166 168 175 175 164 159 162 160 149 143 149 153 164 180 184 183 190 192 191 191 185 164 136 139 133 125 155 164 177 187 188 191 196 202 204 203 198 184 177 185 187 181 172 180 189 192 194 202 214 220 227 236 238 220 214 242 248 246 255 261
179 170 177 183 179 178 180 182 183 180 181 180 176 177 182 175 159 128 100 106 107 120 120 106 102 110 135 160 161 157 165 175 172 161 158 156 145 135 140 144 149 163 173 177 184 190 191 187 185 184 178 170 156 139 147 157 166 173 180 191 200 205 209 213 210 200 195 190 188 195 198 191 192 193 194 199 205 215 227 230 227 220 235 252 261 266 266 264
188 181 183 181 176 178 179 178 179 176 171 165 161 161 158 156 153 139 124 120 118 129 128 116 112 114 129 148 149 146 151 161 163 160 158 156 149 140 136 142 149 152 161 169 176 186 189 180 177 186 187 181 173 156 153 159 165 165 171 183 194 201 206 210 213 214 210 197 194 204 205 200 198 196 197 199 200 210 224 224 214 220 242 261 271 267 265 269
196 193 188 183 178 179 176 172 176 174 163 156 153 151 149 151 152 146 138 138 136 136 132 125 122 119 123 136 142 139 142 150 151 151 154 153 149 145 140 143 153 149 151 163 170 184 189 177 169 181 183 182 181 170 168 174 171 166 171 179 184 188 194 203 211 216 214 211 217 214 203 199 201 201 203 202 203 212 219 213 205 218 234 258 277 273 269 276
196 188 181 179 177 174 169 168 172 168 157 152 149 147 147 149 158 164 159 152 148 140 133 133 130 123 117 126 138 137 137 144 145 144 150 151 147 148 145 144 150 147 148 163 168 179 186 171 162 177 177 170 172 170 173 184 181 173 175 184 187 185 187 197 206 212 212 214 222 218 206 202 203 205 209 207 209 218 218 211 215 226 235 250 260 263 269 281
192 184 175 172 170 168 166 167 167 158 151 151 146 140 141 143 156 170 171 166 162 149 133 134 133 126 117 121 135 134 132 140 144 142 147 151 151 154 153 152 158 156 156 166 167 175 183 163 152 166 163 147 150 162 161 176 191 185 182 189 195 192 190 193 196 200 205 209 213 215 211 209 206 208 210 208 211 216 209 205 220 231 236 249 263 271 280 296
192 184 171 166 165 167 165 163 160 152 150 152 143 134 140 144 155 166 161 148 152 152 131 133 142 134 125 130 135 130 127 133 141 142 143 147 151 153 152 155 163 164 166 172 174 180 187 161 151 162 157 134 136 151 145 153 184 184 178 182 188 191 190 190 190 190 197 205 209 209 209 209 208 207 206 204 209 210 205 206 219 229 230 247 278 289 289 294
195 180 164 164 164 165 163 160 155 148 147 149 144 137 141 145 154 166 155 126 124 139 128 128 153 150 138 141 141 134 134 136 140 143 142 145 153 151 142 142 150 158 166 176 179 183 195 178 161 163 155 139 142 148 142 145 161 167 170 175 177 181 187 191 192 191 193 203 210 213 211 207 205 203 199 199 206 215 217 215 217 222 232 256 281 287 280 271
Height
3062 3062 3062 3063 3063 3063 3064 3064 3065 3065 3066 3067 3067 3068 3069 3069 3070 3071 3072 3073 3073 3074 3076 3077 3079 3080 3081 3082 3083 3085 3086 3086 3087 3087 3091 3097 3098 3096 3097 3098 3098 3100 3102 3104 3106 3107 3108 3109 3109 3110 3112 3113 3114 3116 3117 3117 3118 3118 3119 3118 3119 3121 3122 3124 3126 3127 3127 3128 3128 3129 3129 3130 3131 3133 3133 3134 3135 3135 3136 3137 3138 3138 3139 3140 3141 3142 3142 3142
3058 3058 3059 3059 3060 3060 3061 3061 3061 3062 3063 3064 3064 3065 3066 3066 3067 3067 3068 3069 3070 3071 3073 3075 3076 3077 3078 3079 3080 3082 3082 3083 3083 3085 3091 3096 3094 3094 3095 3095 3096 3098 3100 3103 3105 3106 3106 3107 3108 3109 3111 3112 3113 3114 3115 3116 3117 3117 3117 3117 3118 3121 3123 3124 3126 3127 3127 3128 3128 3129 3129 3130 3131 3132 3133 3134 3134 3135 3136 3137 3137 3138 3139 3140 3141 3141 3141 3141
3055 3055 3055 3056 3056 3057 3057 3058 3058 3059 3060 3060 3061 3062 3062 3063 3064 3064 3065 3066 3067 3068 3070 3072 3073 3074 3075 3076 3078 3079 3079 3080 3080 3084 3091 3091 3090 3092 3093 3093 3094 3096 3099 3101 3102 3103 3104 3105 3106 3108 3109 3111 3112 3113 3114 3115 3116 3116 3116 3116 3118 3121 3123 3124 3126 3126 3127 3127 3128 3129 3129 3130 3131 3132 3133 3134 3134 3135 3136 3137 3137 3138 3138 3139 3140 3140 3140 3140
3051 3052 3052 3052 3053 3053 3054 3055 3055 3056 3057 3057 3058 3059 3059 3060 3061 3061 3062 3063 3064 3065 3067 3069 3070 3071 3072 3073 3075 3076 3076 3076 3077 3084 3088 3087 3088 3090 3091 3091 3092 3095 3097 3098 3099 3100 3102 3103 3104 3106 3107 3109 3110 3111 3112 3113 3115 3115 3115 3115 3118 3121 3122 3124 3125 3126 3127 3127 3128 3128 3129 3130 3131 3132 3133 3133 3134 3135 3136 3136 3137 3137 3138 3139 3139 3139 3140 3140
3048 3048 3049 3049 3049 3050 3050 3051 3052 3053 3054 3054 3055 3056 3057 3057 3057 3058 3059 3060 3061 3063 3065 3066 3067 3068 3069 3070 3072 3073 3074 3074 3076 3082 3083 3083 3086 3087 3088 3089 3090 3093 3094 3095 3097 3099 3101 3102 3103 3104 3106 3107 3108 3109 3111 3113 3114 3114 3114 3116 3118 3120 3121 3123 3124 3125 3126 3126 3127 3128 3129 3130 3130 3132 3132 3133 3134 3135 3135 3136 3136 3137 3138 3138 3138 3139 3139 3140
3045 3045 3045 3046 3046 3046 3047 3048 3049 3050 3051 3051 3052 3053 3054 3054 3054 3055 3056 3057 3058 3060 3062 3063 3064 3065 3066 3067 3069 3070 3071 3072 3075 3078 3079 3081 3083 3085 3086 3087 3088 3090 3092 3093 3095 3097 3099 3100 3102 3103 3105 3106 3107 3108 3111 3113 3113 3113 3114 3115 3118 3119 3120 3122 3124 3125 3125 3126 3126 3127 3127 3128 3130 3131 3131 3132 3134 3134 3135 3135 3136 3136 3136 3137 3137 3138 3139 3139
3042 3042 3042 3042 3043 3043 3044 3045 3046 3047 3048 3048 3049 3050 3051 3051 3052 3052 3053 3054 3056 3058 3059 3061 3062 3062 3063 3064 3065 3066 3066 3070 3075 3076 3077 3078 3080 3082 3083 3085 3086 3088 3090 3092 3093 3095 3097 3098 3100 3102 3104 3105 3106 3108 3111 3112 3112 3112 3113 3115 3117 3119 3120 3122 3123 3123 3124 3124 3125 3125 3125 3127 3129 3130 3130 3132 3133 3133 3134 3134 3135 3135 3135 3136 3137 3137 3138 3139
3039 3039 3039 3039 3040 3040 3041 3042 3043 3044 3045 3046 3046 3047 3048 3048 3049 3050 3051 3052 3053 3055 3056 3058 3058 3059 3061 3061 3062 3062 3062 3069 3075 3074 3074 3075 3077 3079 3081 3082 3084 3086 3089 3090 3092 3094 3095 3097 3100 3102 3103 3104 3106 3108 3110 3111 3111 3111 3112 3115 3117 3118 3119 3121 3121 3122 3123 3124 3124 3124 3125 3126 3127 3129 3130 3131 3132 3133 3133 3133 3133 3134 3135 3136 3136 3137 3138 3138
3036 3036 3036 3036 3037 3037 3038 3039 3040 3041 3042 3043 3044 3045 3045 3046 3046 3047 3048 3049 3051 3052 3054 3055 3056 3057 3058 3059 3059 3058 3062 3070 3071 3069 3071 3074 3076 3077 3078 3080 3083 3085 3087 3089 3091 3092 3094 3097 3099 3101 3102 3104 3105 3107 3109 3110 3110 3110 3112 3115 3116 3117 3118 3119 3120 3121 3122 3123 3123 3124 3125 3126 3127 3128 3130 3131 3132 3132 3131 3132 3132 3133 3134 3135 3135 3136 3137 3138
3033 3033 3033 3033 3034 3035 3035 3036 3037 3038 3039 3040 3041 3042 3042 3043 3044 3044 3045 3047 3048 3050 3051 3052 3053 3054 3055 3056 3055 3056 3063 3067 3067 3067 3069 3071 3074 3075 3076 3079 3081 3083 3085 3087 3089 3091 3094 3097 3099 3100 3101 3103 3104 3106 3107 3108 3109 3110 3112 3114 3115 3116 3117 3118 3120 3121 3122 3122 3123 3124 3125 3126 3127 3127 3129 3130 3131 3131 3130 3131 3132 3133 3134 3134 3135 3136 3137 3137
3030 3030 3030 3031 3031 3032 3033 3034 3035 3036 3036 3037 3038 3039 3040 3040 3041 3042 3043 3045 3046 3047 3048 3049 3051 3051 3052 3053 3052 3056 3062 3064 3064 3066 3067 3069 3072 3073 3075 3077 3079 3081 3083 3085 3088 3091 3094 3096 3097 3098 3100 3101 3102 3105 3106 3107 3109 3110 3112 3113 3114 3115 3116 3117 3119 3120 3121 3122 3123 3123 3124 3125 3126 3126 3128 3129 3130 3130 3130 3130 3131 3132 3133 3133 3135 3136 3136 3136
3027 3027 3028 3028 3028 3029 3030 3031 3032 3033 3034 3035 3035 3036 3037 3038 3039 3040 3041 3042 3043 3045 3046 3047 3048 3048 3050 3049 3050 3057 3060 3060 3061 3063 3065 3068 3070 3071 3073 3075 3077 3079 3081 3084 3088 3090 3092 3094 3095 3097 3098 3099 3101 3104 3105 3106 3108 3110 3111 3112 3113 3114 3115 3117 3118 3119 3120 3121 3122 3123 3123 3124 3124 3126 3127 3128 3129 3129 3129 3130 3130 3131 3132 3133 3134 3135 3135 3135
3025 3025 3025 3026 3026 3027 3027 3028 3029 3030 3031 3032 3033 3034 3035 3036 3036 3037 3038 3039 3041 3042 3043 3044 3045 3046 3046 3046 3051 3057 3056 3056 3059 3060 3063 3066 3068 3069 3071 3073 3075 3077 3080 3083 3085 3088 3090 3091 3093 3095 3097 3098 3101 3103 3104 3105 3107 3109 3110 3111 3113 3114 3114 3116 3117 3118 3119 3120 3121 3122 3122 3122 3124 3125 3126 3127 3128 3128 3128 3129 3130 3130 3131 3132 3133 3134 3134 3134
3023 3023 3023 3023 3024 3024 3025 3026 3027 3028 3029 3030 3031 3032 3033 3033 3034 3035 3036 3037 3039 3040 3041 3042 3042 3043 3043 3045 3051 3053 3052 3054 3056 3059 3062 3064 3066 3068 3069 3072 3074 3076 3079 3082 3084 3085 3087 3089 3091 3093 3095 3097 3100 3101 3102 3104 3106 3108 3110 3111 3112 3113 3114 3115 3116 3117 3118 3119 3120 3121 3121 3121 3123 3125 3125 3126 3127 3127 3127 3128 3129 3130 3131 3131 3132 3133 3133 3134
3021 3021 3021 3021 3022 3022 3023 3024 3025 3026 3027 3028 3029 3030 3030 3031 3031 3032 3034 3035 3036 3037 3038 3039 3040 3041 3041 3045 3049 3049 3050 3052 3055 3058 3061 3062 3065 3067 3069 3072 3073 3075 3077 3079 3081 3083 3084 3086 3089 3091 3093 3096 3098 3099 3102 3103 3105 3107 3108 3109 3110 3112 3113 3114 3115 3116 3117 3118 3119 3120 3121 3121 3123 3123 3124 3126 3126 3126 3127 3128 3129 3129 3130 3131 3131 3132 3133 3133
3019 3019 3019 3019 3020 3020 3021 3022 3023 3023 3024 3025 3027 3028 3028 3028 3029 3030 3031 3032 3033 3035 3036 3037 3038 3039 3040 3044 3046 3046 3048 3051 3055 3057 3058 3060 3063 3066 3068 3070 3071 3073 3075 3077 3079 3081 3082 3084 3087 3090 3092 3094 3095 3098 3100 3102 3103 3105 3107 3108 3109 3111 3112 3113 3114 3115 3116 3117 3118 3119 3120 3121 3122 3123 3124 3125 3126 3126 3126 3127 3128 3128 3129 3130 3131 3131 3132 3133
3017 3017 3018 3018 3018 3019 3019 3020 3021 3022 3023 3024 3025 3025 3025 3026 3027 3028 3029 3030 3031 3032 3034 3035 3036 3038 3039 3041 3043 3044 3048 3050 3053 3054 3056 3059 3062 3064 3066 3068 3070 3072 3074 3075 3076 3078 3080 3082 3085 3088 3090 3092 3094 3096 3098 3099 3101 3103 3105 3107 3109 3110 3111 3112 3113 3114 3114 3115 3117 3118 3118 3120 3122 3123 3124 3124 3124 3125 3126 3126 3126 3127 3128 3129 3130 3131 3131 3132
3016 3016 3016 3016 3017 3017 3018 3018 3019 3020 3021 3022 3023 3023 3023 3024 3026 3026 3026 3028 3029 3030 3031 3032 3034 3036 3037 3040 3041 3043 3046 3047 3049 3051 3054 3057 3059 3062 3064 3066 3068 3070 3071 3073 3074 3076 3078 3081 3084 3086 3088 3090 3092 3093 3094 3096 3099 3101 3104 3106 3108 3109 3110 3111 3112 3112 3113 3113 3115 3116 3117 3119 3120 3121 3122 3122 3123 3123 3124 3124 3124 3125 3126 3127 3129 3130 3130 3131
3014 3014 3015 3015 3015 3016 3016 3017 3018 3018 3019 3020 3021 3022 3022 3022 3023 3024 3024 3025 3026 3027 3029 3031 3032 3034 3037 3039 3040 3041 3042 3044 3046 3049 3052 3055 3057 3059 3062 3064 3066 3068 3069 3070 3072 3074 3076 3079 3081 3083 3085 3087 3090 3092 3094 3097 3100 3101 3103 3105 3107 3108 3109 3110 3111 3111 3111 3112 3114 3114 3116 3117 3117 3118 3120 3121 3122 3122 3123 3122 3122 3123 3123 3125 3127 3128 3129 3131
3013 3013 3013 3013 3014 3014 3015 3015 3016 3017 3018 3019 3020 3020 3020 3020 3021 3021 3021 3022 3024 3026 3027 3029 3030 3033 3035 3037 3038 3039 3040 3042 3045 3047 3050 3053 3055 3057 3059 3061 3063 3065 3067 3068 3070 3073 3075 3077 3078 3080 3084 3087 3090 3093 3096 3098 3099 3100 3102 3104 3106 3107 3108 3109 3110 3110 3110 3111 3113 3114 3114 3114 3115 3117 3118 3120 3121 3121 3121 3121 3121 3121 3122 3123 3125 3127 3129 3131
3011 3011 3011 3012 3012 3013 3013 3014 3015 3016 3017 3018 3019 3019 3018 3018 3018 3018 3019 3020 3022 3024 3025 3027 3028 3029 3032 3034 3036 3038 3038 3040 3042 3045 3048 3051 3054 3055 3057 3059 3060 3062 3064 3067 3069 3072 3074 3075 3077 3081 3085 3089 3091 3093 3095 3096 3097 3099 3101 3103 3105 3106 3107 3108 3109 3109 3109 3110 3112 3112 3111 3112 3114 3116 3118 3120 3120 3120 3120 3120 3120 3121 3122 3123 3125 3127 3128 3130
3009 3009 3010 3011 3011 3011 3012 3013 3014 3015 3016 3017 3018 3018 3016 3016 3017 3017 3018 3019 3021 3022 3023 3025 3026 3027 3030 3032 3034 3035 3036 3038 3041 3044 3046 3049 3051 3053 3055 3057 3059 3061 3063 3065 3067 3070 3072 3074 3078 3083 3086 3088 3090 3092 3093 3094 3096 3098 3100 3102 3104 3105 3107 3107 3108 3108 3108 3109 3109 3109 3109 3111 3113 3115 3118 3119 3119 3119 3119 3119 3120 3120 3122 3123 3125 3126 3127 3128
3007 3007 3008 3009 3009 3010 3011 3012 3012 3014 3016 3016 3016 3016 3015 3015 3016 3017 3018 3018 3019 3020 3021 3022 3024 3025 3028 3031 3032 3033 3034 3036 3039 3042 3044 3047 3049 3051 3053 3055 3058 3060 3062 3063 3065 3068 3070 3074 3078 3082 3085 3086 3088 3090 3091 3093 3094 3096 3098 3101 3103 3105 3106 3106 3107 3107 3107 3107 3107 3107 3108 3110 3113 3115 3117 3118 3118 3119 3119 3119 3120 3120 3121 3123 3124 3125 3126 3127
3005 3006 3007 3007 3008 3009 3010 3010 3011 3013 3015 3015 3015 3014 3014 3014 3015 3016 3017 3017 3017 3018 3018 3020 3022 3023 3027 3030 3031 3031 3033 3035 3037 3039 3043 3045 3047 3050 3052 3054 3057 3059 3060 3062 3065 3068 3071 3074 3079 3081 3083 3085 3086 3088 3090 3091 3093 3095 3097 3099 3102 3104 3105 3105 3106 3106 3106 3105 3106 3106 3107 3111 3113 3115 3116 3117 3118 3118 3118 3119 3119 3120 3121 3122 3123 3124 3124 3125
3004 3004 3005 3006 3007 3008 3008 3009 3010 3013 3014 3014 3013 3014 3014 3015 3016 3016 3017 3017 3015 3015 3017 3018 3019 3021 3025 3028 3028 3030 3032 3033 3035 3038 3041 3044 3046 3048 3051 3054 3056 3058 3060 3062 3065 3068 3071 3075 3078 3080 3081 3083 3085 3087 3088 3090 3092 3094 3096 3098 3101 3103 3104 3105 3105 3105 3105 3105 3105 3105 3107 3113 3115 3114 3116 3117 3117 3118 3118 3118 3119 3120 3121 3122 3122 3123 3124 3124
3002 3003 3004 3005 3006 3006 3007 3008 3010 3012 3012 3013 3013 3014 3014 3015 3017 3017 3018 3017 3014 3013 3014 3016 3017 3020 3023 3024 3026 3029 3031 3031 3034 3037 3040 3043 3046 3047 3050 3053 3055 3057 3060 3062 3065 3067 3071 3074 3076 3078 3080 3082 3084 3085 3087 3089 3091 3093 3095 3098 3101 3102 3103 3104 3104 3104 3103 3104 3104 3104 3106 3112 3115 3114 3115 3116 3116 3117 3117 3118 3119 3119 3120 3121 3121 3122 3123 3123
3001 3001 3002 3003 3004 3005 3006 3007 3009 3011 3011 3013 3013 3014 3015 3016 3017 3018 3018 3018 3014 3011 3012 3014 3016 3018 3021 3024 3025 3028 3029 3030 3034 3037 3039 3042 3045 3047 3049 3050 3053 3056 3059 3061 3064 3066 3069 3072 3074 3076 3078 3080 3081 3083 3085 3088 3090 3092 3094 3097 3100 3102 3102 3103 3103 3103 3103 3102 3103 3103 3104 3109 3113 3114 3114 3115 3116 3116 3116 3117 3118 3119 3119 3120 3120 3121 3121 3122
2999 3000 3001 3002 3003 3004 3005 3006 3008 3009 3010 3012 3013 3014 3015 3016 3018 3018 3019 3018 3012 3008 3010 3012 3015 3017 3020 3023 3024 3026 3028 3030 3032 3035 3039 3042 3044 3046 3048 3050 3052 3055 3057 3059 3062 3065 3067 3069 3072 3074 3076 3077 3079 3082 3084 3087 3089 3091 3094 3097 3099 3101 3102 3102 3103 3103 3102 3102 3101 3102 3104 3107 3111 3113 3114 3114 3115 3115 3116 3117 3118 3118 3119 3119 3119 3120 3120 3121
2998 2999 3000 3001 3002 3003 3004 3005 3006 3008 3010 3011 3013 3015 3016 3017 3018 3018 3019 3017 3010 3008 3010 3011 3014 3016 3018 3021 3023 3026 3028 3030 3031 3034 3037 3041 3043 3045 3047 3050 3053 3055 3057 3059 3062 3065 3067 3069 3071 3073 3074 3075 3078 3081 3083 3085 3088 3091 3094 3096 3098 3100 3101 3101 3102 3102 3102 3102 3102 3103 3104 3106 3110 3112 3112 3113 3114 3115 3116 3117 3117 3118 3118 3118 3119 3119 3119 3120
2997 2998 2999 3000 3001 3002 3003 3004 3005 3008 3009 3011 3013 3015 3016 3017 3017 3018 3019 3014 3007 3008 3010 3010 3013 3014 3016 3019 3022 3025 3028 3029 3031 3033 3036 3039 3042 3045 3047 3050 3053 3055 3056 3058 3061 3064 3066 3068 3069 3071 3073 3075 3078 3080 3082 3084 3087 3090 3092 3095 3097 3099 3100 3100 3101 3101 3102 3103 3102 3103 3104 3105 3108 3111 3111 3112 3113 3114 3116 3117 3117 3118 3118 3118 3118 3118 3118 3118
2996 2997 2998 2999 3000 3001 3002 3003 3005 3007 3009 3011 3013 3015 3016 3016 3017 3017 3016 3010 3007 3008 3009 3010 3012 3013 3015 3017 3020 3024 3027 3028 3031 3032 3034 3037 3040 3043 3045 3048 3050 3053 3055 3057 3060 3063 3065 3066 3067 3070 3072 3075 3077 3079 3081 3083 3085 3088 3090 3093 3095 3097 3099 3100 3100 3100 3102 3103 3102 3103 3104 3105 3107 3110 3111 3111 3112 3114 3115 3116 3117 3117 3117 3117 3117 3117 3117 3117
2996 2996 2997 2998 2999 3000 3001 3003 3004 3006 3008 3011 3013 3014 3015 3016 3016 3014 3011 3008 3008 3008 3008 3010 3011 3012 3014 3017 3019 3023 3025 3027 3030 3031 3033 3035 3038 3040 3042 3045 3047 3050 3053 3055 3058 3061 3063 3064 3066 3069 3071 3072 3074 3076 3078 3080 3082 3085 3088 3090 3093 3096 3098 3099 3100 3101 3101 3102 3102 3102 3103 3105 3108 3110 3110 3111 3112 3113 3115 3116 3116 3116 3116 3117 3117 3117 3117 3117
2995 2995 2996 2997 2998 2999 3000 3002 3004 3006 3008 3010 3012 3013 3014 3015 3013 3010 3008 3008 3008 3008 3008 3010 3011 3012 3014 3017 3019 3022 3025 3027 3029 3031 3033 3035 3037 3040 3042 3044 3047 3049 3051 3053 3057 3060 3062 3064 3065 3067 3069 3070 3071 3073 3074 3076 3079 3081 3084 3087 3089 3093 3096 3099 3102 3102 3101 3101 3102 3102 3103 3106 3108 3110 3110 3111 3112 3113 3114 3115 3116 3116 3116 3116 3116 3116 3116 3116
2994 2994 2995 2996 2997 2998 3000 3001 3003 3005 3007 3009 3010 3012 3013 3013 3010 3009 3009 3009 3008 3008 3008 3010 3011 3013 3014 3016 3018 3021 3024 3027 3028 3031 3033 3035 3036 3038 3041 3043 3046 3049 3051 3053 3057 3059 3061 3062 3063 3064 3067 3068 3069 3071 3073 3075 3078 3080 3083 3085 3087 3089 3092 3096 3099 3099 3099 3100 3101 3102 3104 3106 3108 3109 3110 3111 3111 3112 3113 3114 3115 3116 3116 3116 3115 3116 3116 3116
2993 2993 2994 2995 2996 2998 2999 3001 3003 3005 3006 3008 3009 3010 3010 3009 3009 3009 3010 3010 3009 3007 3007 3009 3011 3012 3014 3016 3018 3021 3023 3025 3027 3030 3032 3033 3035 3037 3040 3042 3045 3048 3050 3052 3055 3058 3060 3061 3061 3063 3065 3067 3069 3071 3073 3075 3077 3080 3082 3084 3087 3088 3089 3092 3095 3096 3096 3099 3102 3103 3104 3106 3107 3109 3110 3110 3110 3111 3112 3113 3114 3115 3115 3115 3115 3115 3115 3115
2992 2992 2993 2994 2996 2997 2999 3001 3002 3004 3005 3007 3008 3008 3007 3008 3008 3008 3008 3008 3008 3008 3007 3008 3009 3010 3013 3015 3017 3020 3023 3024 3027 3029 3031 3033 3035 3037 3040 3042 3044 3046 3049 3052 3054 3056 3058 3059 3060 3062 3064 3066 3068 3070 3072 3073 3075 3077 3080 3082 3085 3087 3089 3090 3093 3095 3096 3099 3103 3105 3105 3106 3108 3109 3109 3109 3109 3110 3110 3111 3112 3113 3113 3113 3113 3114 3114 3114
2991 2991 2992 2994 2995 2997 2998 3000 3002 3003 3004 3005 3006 3006 3006 3008 3008 3008 3007 3007 3007 3007 3007 3008 3008 3009 3011 3013 3015 3018 3021 3023 3026 3028 3030 3032 3035 3037 3039 3042 3044 3046 3049 3052 3053 3055 3057 3058 3060 3062 3063 3065 3067 3069 3070 3072 3074 3076 3078 3081 3084 3086 3088 3088 3091 3096 3098 3101 3105 3105 3105 3106 3107 3108 3108 3108 3108 3108 3109 3110 3111 3112 3112 3112 3112 3112 3112 3113
2990 2991 2992 2993 2994 2996 2998 2999 3000 3001 3003 3004 3005 3006 3007 3008 3008 3007 3007 3007 3006 3006 3007 3007 3008 3009 3010 3012 3014 3017 3019 3022 3024 3026 3028 3031 3033 3035 3038 3041 3043 3046 3049 3051 3053 3054 3056 3057 3059 3061 3062 3064 3066 3067 3069 3071 3074 3076 3078 3080 3082 3083 3085 3086 3089 3093 3097 3103 3106 3105 3106 3106 3106 3106 3106 3107 3107 3107 3108 3109 3110 3110 3110 3111 3111 3111 3111 3111
2989 2990 2991 2992 2994 2995 2997 2998 2999 2999 3001 3002 3004 3005 3006 3007 3008 3007 3007 3006 3005 3006 3006 3006 3007 3008 3009 3010 3013 3016 3019 3021 3023 3025 3027 3030 3032 3034 3037 3040 3042 3045 3048 3050 3052 3053 3055 3056 3058 3059 3061 3063 3064 3066 3067 3069 3072 3075 3077 3079 3080 3081 3083 3085 3087 3089 3092 3101 3106 3106 3106 3106 3104 3105 3105 3105 3106 3106 3107 3108 3108 3109 3109 3109 3109 3109 3109 3110
2988 2989 2990 2992 2993 2994 2995 2996 2997 2998 3000 3002 3003 3005 3006 3007 3008 3008 3007 3006 3006 3006 3006 3005 3006 3006 3008 3009 3012 3015 3018 3021 3023 3025 3027 3030 3032 3034 3036 3038 3040 3043 3046 3049 3051 3052 3054 3055 3056 3058 3060 3061 3062 3064 3066 3068 3070 3072 3075 3077 3078 3080 3082 3084 3087 3087 3089 3096 3102 3104 3105 3103 3102 3104 3105 3104 3105 3105 3106 3106 3107 3108 3108 3108 3108 3108 3109 3109
2987 2989 2990 2991 2992 2993 2994 2995 2996 2998 3000 3001 3003 3004 3006 3008 3008 3007 3007 3006 3006 3005 3005 3005 3005 3005 3006 3009 3011 3014 3017 3020 3023 3025 3027 3029 3031 3033 3035 3036 3039 3041 3044 3047 3049 3051 3053 3054 3056 3057 3058 3060 3061 3063 3066 3068 3070 3071 3073 3075 3077 3079 3081 3083 3086 3087 3087 3090 3095 3098 3099 3098 3099 3102 3103 3103 3103 3104 3104 3105 3106 3106 3106 3107 3107 3107 3108 3109
2987 2988 2989 2990 2991 2992 2993 2994 2996 2997 2999 3001 3002 3004 3006 3008 3007 3006 3005 3005 3005 3005 3004 3004 3004 3004 3006 3008 3010 3013 3016 3020 3023 3025 3027 3029 3031 3032 3033 3035 3038 3041 3043 3045 3048 3050 3053 3054 3055 3057 3058 3059 3061 3063 3065 3067 3069 3071 3072 3074 3076 3077 3079 3081 3083 3085 3086 3088 3090 3092 3094 3096 3098 3100 3102 3102 3102 3102 3104 3105 3105 3105 3106 3106 3106 3107 3107 3108
2986 2987 2988 2989 2990 2991 2993 2994 2995 2997 2999 3001 3002 3004 3006 3007 3006 3005 3004 3004 3004 3004 3004 3004 3004 3004 3005 3007 3009 3012 3015 3019 3022 3024 3026 3029 3031 3032 3033 3035 3037 3040 3042 3044 3047 3049 3052 3054 3055 3056 3058 3059 3060 3062 3064 3066 3068 3070 3071 3073 3075 3076 3078 3079 3081 3082 3084 3086 3088 3090 3094 3096 3097 3098 3100 3100 3100 3102 3103 3104 3104 3105 3105 3105 3106 3106 3106 3107
2984 2985 2987 2988 2990 2991 2992 2994 2995 2997 2998 3000 3002 3004 3006 3006 3006 3005 3004 3004 3004 3004 3004 3004 3004 3004 3005 3007 3009 3012 3015 3018 3022 3024 3026 3028 3031 3032 3033 3035 3037 3039 3041 3044 3045 3048 3050 3052 3054 3056 3058 3060 3061 3062 3063 3065 3066 3068 3070 3072 3074 3076 3077 3079 3080 3081 3082 3084 3086 3087 3091 3093 3094 3096 3097 3098 3100 3102 3103 3103 3104 3104 3105 3105 3105 3105 3106 3106
2984 2984 2986 2988 2989 2991 2992 2994 2995 2996 2998 3000 3001 3003 3005 3006 3006 3005 3005 3005 3005 3005 3005 3005 3005 3005 3006 3007 3009 3012 3015 3017 3020 3024 3026 3028 3030 3032 3033 3035 3037 3039 3041 3043 3045 3047 3049 3051 3053 3055 3057 3060 3062 3062 3062 3064 3066 3067 3069 3071 3073 3075 3076 3078 3079 3079 3081 3083 3084 3085 3087 3090 3092 3094 3096 3097 3099 3101 3102 3102 3103 3104 3104 3104 3104 3104 3105 3105
2983 2984 2985 2987 2989 2990 2992 2994 2995 2996 2998 2999 3001 3003 3004 3005 3005 3005 3005 3006 3006 3006 3006 3006 3007 3007 3007 3008 3010 3012 3015 3017 3019 3023 3026 3028 3030 3032 3034 3035 3037 3039 3040 3042 3044 3046 3048 3050 3053 3054 3056 3058 3060 3060 3062 3063 3065 3066 3068 3070 3071 3073 3075 3077 3078 3078 3079 3081 3083 3084 3085 3087 3089 3091 3094 3096 3098 3100 3101 3102 3103 3103 3104 3103 3103 3104 3104 3104
2983 2984 2985 2986 2988 2990 2992 2994 2995 2997 2998 3000 3001 3003 3003 3004 3005 3005 3006 3006 3007 3007 3007 3008 3008 3009 3009 3010 3010 3013 3016 3017 3019 3022 3025 3028 3030 3032 3034 3036 3037 3039 3040 3041 3043 3045 3047 3049 3052 3054 3056 3057 3059 3060 3062 3063 3064 3066 3067 3069 3070 3072 3074 3075 3076 3077 3078 3080 3081 3083 3084 3086 3087 3089 3091 3094 3096 3098 3099 3101 3102 3103 3103 3103 3103 3103 3103 3103
2983 2984 2985 2987 2988 2990 2992 2994 2996 2997 2999 3000 3001 3003 3003 3004 3005 3006 3006 3007 3007 3008 3008 3009 3010 3010 3011 3011 3012 3013 3016 3018 3020 3022 3025 3028 3030 3032 3034 3036 3037 3039 3040 3041 3043 3045 3047 3049 3051 3054 3055 3057 3059 3060 3062 3063 3064 3066 3067 3069 3070 3071 3073 3074 3075 3076 3077 3078 3080 3081 3083 3084 3086 3088 3090 3092 3094 3095 3097 3100 3101 3101 3102 3102 3102 3102 3102 3102
2982 2983 2985 2987 2989 2990 2992 2994 2996 2998 2999 3000 3002 3003 3003 3004 3005 3006 3007 3008 3008 3009 3009 3010 3011 3012 3013 3014 3014 3015 3017 3019 3021 3023 3025 3028 3030 3032 3034 3036 3038 3039 3040 3042 3043 3044 3046 3048 3051 3053 3055 3057 3058 3060 3062 3063 3064 3065 3067 3069 3070 3071 3072 3073 3074 3076 3076 3077 3079 3080 3082 3083 3085 3086 3088 3090 3093 3094 3096 3099 3100 3100 3101 3101 3101 3101 3101 3101
2982 2983 2985 2987 2989 2990 2992 2994 2996 2997 2999 3000 3002 3003 3003 3005 3006 3007 3008 3009 3009 3010 3010 3011 3012 3013 3015 3016 3016 3017 3019 3020 3022 3024 3026 3028 3030 3031 3034 3036 3037 3039 3040 3042 3043 3044 3046 3048 3051 3052 3054 3057 3059 3060 3061 3063 3064 3065 3066 3068 3070 3071 3072 3072 3074 3075 3076 3077 3078 3079 3081 3082 3084 3085 3087 3090 3092 3093 3096 3097 3098 3099 3100 3100 3100 3100 3100 3100
2982 2983 2985 2987 2989 2990 2992 2994 2996 2998 2999 3000 3002 3003 3004 3005 3006 3007 3008 3009 3010 3011 3012 3013 3014 3014 3016 3017 3018 3019 3020 3022 3024 3025 3027 3029 3030 3032 3034 3036 3038 3039 3040 3042 3043 3044 3045 3048 3051 3052 3054 3057 3059 3060 3061 3063 3064 3065 3066 3068 3070 3071 3071 3072 3073 3074 3075 3076 3077 3078 3079 3081 3083 3084 3086 3089 3091 3092 3094 3096 3097 3098 3098 3099 3099 3098 3098 3099
2982 2983 2985 2986 2988 2990 2992 2994 2996 2998 2999 3001 3002 3003 3005 3006 3007 3007 3008 3010 3011 3012 3013 3014 3015 3016 3017 3017 3018 3020 3021 3023 3025 3026 3028 3030 3031 3033 3034 3036 3038 3039 3041 3042 3043 3044 3045 3047 3050 3052 3054 3058 3060 3060 3062 3063 3065 3066 3067 3068 3069 3070 3071 3072 3072 3073 3074 3075 3076 3077 3079 3080 3082 3084 3086 3088 3090 3091 3093 3094 3095 3096 3097 3097 3098 3097 3097 3098